753  
ASUS41 KPHI 270111  
RWRPHI  
 
REGIONAL WEATHER ROUNDUP  
NATIONAL WEATHER SERVICE MOUNT HOLLY NJ  
900 PM EDT TUE MAY 26 2015  
 
NOTE: "FAIR" INDICATES FEW OR NO CLOUDS BELOW 12,000 FEET WITH NO  
SIGNIFICANT WEATHER AND/OR S TO VISIBILITY
.  
 
* = STATION DOES NOT REPORT PRECIPITATION (E.G. RAIN, SNOW, ETC.)  
OR FOG.
 
 
NJZ015>026-270200-  
SOUTHERN NEW JERSEY  
 
CITY SKY/WX TMP DP RH WIND PRES REMARKS
 
POMONA CLEAR 70 62 76 S13G24 30.20R  
RIO GRANDE* PTCLDY 68 59 73 S15G22 30.22R  
MILLVILLE PTCLDY 71 64 78 VRB7 30.19R  
WRIGHTSTOWN CLEAR 72 62 70 S9 30.15R  
MOUNT HOLLY PTCLDY 74 63 68 VRB6 30.16R  
TRENTON PTCLDY 78 64 61 S15 30.14R  
 

 
NJZ001>014-270200-  
NORTHERN NEW JERSEY  
 
CITY SKY/WX TMP DP RH WIND PRES REMARKS
 
SUSSEX CLEAR 74 63 68 CALM 30.14S  
ANDOVER* N/A 77 62 59 VRB3 30.13R  
MORRISTOWN PTCLDY 81 63 54 S10 30.13R  
NEWARK MOCLDY 79 63 57 S16 30.13R  
TETERBORO CLEAR 78 62 57 S10 30.11R  
CALDWELL CLEAR 82 59 45 S5 30.12R  
SOMERVILLE PTCLDY 77 60 55 S5 30.11R  
ALLAIRE* CLEAR 72 57 60 SW13 30.18R  
TOMS RIVER* CLEAR N/A N/A N/A S10G17 30.19R  
 

 
PAZ043-044-047-054-055-060>062-066>071-270200-  
EASTERN PENNSYLVANIA  
 
CITY SKY/WX TMP DP RH WIND PRES REMARKS
 
PHILADELPHIA MOCLDY 77 64 64 S13 30.16R  
NORTH PHILA PTCLDY 78 61 55 VRB7G20 30.17R  
BLUE BELL MOCLDY 79 66 65 S3 30.14R  
DOYLESTOWN PTCLDY 77 63 61 S5 30.14R  
QUAKERTOWN* MOCLDY 77 66 69 SW6 30.15S  
POTTSTOWN MOCLDY 78 67 68 S3 30.16R  
LANCASTER CLEAR 76 66 71 S9 30.13S  
COATESVILLE PTCLDY 75 68 78 SW3 30.17R  
READING PTCLDY 79 65 62 S9 30.12R  
ALLENTOWN PTCLDY 81 65 58 S9 30.13R  
MOUNT POCONO CLEAR 73 59 61 S8 30.18R  
HAZLETON CLEAR 75 63 64 SE5 30.19R  
WILKES BARRE CLEAR 79 61 53 S7 30.11S  
 

 
DEZALL-MDZ008-012-015-019-020-270200-  
DELAWARE AND EASTERN MARYLAND  
 
CITY SKY/WX TMP DP RH WIND PRES REMARKS
 
WILMINGTON MOCLDY 78 66 66 S8 30.16R  
DOVER PTCLDY 75 67 76 S12 30.15R  
GEORGETOWN CLEAR 72 64 76 S13 30.21R  
EASTON CLEAR 77 66 69 S8 30.21S  
PATUXENT PTCLDY 74 65 73 S7 30.17S  
OCEAN CITY CLEAR 68 62 81 SW12G20 30.23R  
WALLOPS ISLAND CLEAR 68 65 90 S16G23 30.23R  
CAMBRIDGE CLEAR 77 66 69 S12 30.18S  
SALISBURY CLEAR 70 64 81 S12 30.21R  
 

 
PAZ001-021-NYZ056-072-MDZ011-DCZ001-270200-  
OTHER NEARBY LOCATIONS  
 
CITY SKY/WX TMP DP RH WIND PRES REMARKS
 
HARRISBURG MOCLDY 79 67 66 SE8 30.11R  
STATE COLLEGE CLEAR 75 63 64 S6 30.12S  
WILLIAMSPORT PTCLDY 70 68 93 CALM 30.08S FOG  
BINGHAMTON MOCLDY 70 67 90 S6 30.12F  
NEW YORK CITY CLEAR 76 61 59 VRB5 30.16R  
BALTIMORE MOCLDY 75 65 70 SE7 30.14R  
WASHINGTON DC MOCLDY 80 69 69 S8 30.14R  
 

 
 
CLICK HERE TO GO TO PREVIOUS BULLETINS.

The Nexlab PA Page
The Nexlab NJ Page
The Nexlab DE Page
The Nexlab MD Page Main Text Page